Вернуться в каталог

STARLINK-11131

АктивенСвязьVLEO
NORAD 59756·PAYLOAD·🇺🇸 United States

Запущен May 14, 2024 с Vandenberg Space Force Base

Loading…

Ближайшие Пролёты (ближайшие 24 часа)

TLE

СвежийSource: CelesTrak SupGP

Эпоха: Sep 14, 2026, 21:13 UTC

1 59756C 24091D   26257.88451389 -.00010743  00000+0 -88450-4 0  2578
2 59756  53.1572 353.7652 0001070  80.3222  17.8805 15.69727642    12

Отслеживайте STARLINK-11131 в реальном времени с AllMySat

Download on the App Store